SES-9

Last updated on Wed Oct 29 2025 00:02:49 GMT+0000 (Coordinated Universal Time)

1 41380U 16013A 25301.35087171 -.00000335 00000+0 00000+0 0 9990 2 41380 0.0105 316.1670 0001296 189.4634 125.9547 1.00270710 35112
UTC large
Height (km)
Speed (km/s)
/
Latitude / Longitude
Inclination (degrees)
Orbital Period (minutes)
Azimuth
Elevation
Range (km)
Doppler Factor

Next 0 passes for location: London (51.5072 / 0.1276)

Sorry there are no passes over London.